Theta_e
306 306 306 307 307 306 306 306 306 305 306 308 310 311 313 313 313 312 310 309 311 312 312 311 311 311 310 310 310 309 310 309 309 309 309 308 308 308 308 308 308 309 308 308 308 308 308 308 307 308 309 308 309 308 308 308 308 308 310 312 313 315 316 318 319 318 318 319 319 320 320 320 321 322 324 325 324 321 321 320 320 319 316 316 317 315 319
306 306 306 307 306 306 306 306 305 306 306 307 309 311 311 311 311 311 310 310 311 312 312 312 311 310 309 310 309 309 309 309 309 309 309 309 309 308 309 309 309 309 309 309 308 308 309 309 308 308 309 309 309 308 308 308 308 308 310 312 314 315 317 318 319 319 318 317 317 319 320 320 319 322 324 325 325 325 325 323 323 322 318 317 318 315 318
306 306 307 306 305 306 306 306 305 305 306 307 309 310 310 312 313 312 310 310 310 310 310 311 310 309 309 309 309 309 309 309 309 309 309 309 309 309 309 309 308 309 309 309 308 308 308 308 308 309 308 308 309 308 308 309 308 309 310 310 311 314 317 318 320 321 318 318 318 318 319 321 320 322 324 323 324 325 324 321 321 322 321 320 319 316 320
306 307 307 306 305 306 307 306 305 305 306 307 309 310 310 313 314 313 311 311 310 309 309 309 309 309 310 310 309 309 309 309 308 308 309 309 308 309 309 308 309 310 310 309 309 309 308 308 309 309 308 308 308 309 309 309 309 310 310 310 310 313 315 316 319 321 319 320 322 321 319 319 320 320 322 322 323 324 324 321 319 321 322 320 321 321 321
306 306 306 306 306 306 306 306 305 306 306 307 309 311 311 312 312 311 311 312 310 310 309 309 309 309 310 310 309 309 308 309 308 308 309 309 309 309 309 309 310 311 311 311 310 310 309 309 309 309 309 309 309 309 308 309 310 310 310 310 310 311 313 314 316 318 318 319 320 318 317 318 318 318 320 320 322 323 322 320 321 325 323 319 324 328 323
306 306 306 306 306 306 306 306 306 306 306 308 310 311 311 312 311 309 310 311 311 310 309 309 309 309 309 309 309 308 308 308 309 309 308 309 308 309 310 311 310 310 311 311 311 311 311 310 311 311 310 309 310 309 309 308 309 310 309 309 310 310 311 312 312 313 314 314 315 315 316 317 317 317 318 319 321 322 321 321 323 327 325 322 327 332 328
306 306 306 307 307 307 306 306 306 306 307 309 311 311 311 311 310 309 309 310 310 309 309 309 309 308 309 310 309 308 308 308 308 308 308 309 309 309 311 311 310 309 309 310 312 312 311 311 312 311 311 310 310 310 310 309 309 309 308 309 310 309 310 310 310 312 312 312 313 314 314 315 316 316 317 318 320 320 320 322 324 325 326 326 329 332 331
306 306 307 307 307 307 307 307 307 307 307 310 310 310 310 311 310 311 310 310 310 309 308 309 309 308 309 310 309 308 309 308 308 308 308 309 310 310 310 311 310 309 309 310 312 311 311 311 311 311 310 310 310 310 310 309 309 310 309 309 309 309 310 311 310 312 312 312 313 314 314 315 316 316 317 317 318 320 320 321 323 323 324 327 329 329 329
306 306 307 307 307 307 308 308 308 307 308 310 310 309 310 310 310 310 311 311 311 309 308 309 309 309 309 310 309 308 308 308 307 308 308 308 309 310 310 309 309 309 310 310 311 310 309 310 310 309 309 309 309 310 309 309 309 310 310 310 310 309 309 310 310 311 312 312 313 314 314 315 315 315 317 317 317 320 320 321 323 323 325 328 327 325 328
306 306 307 308 308 308 308 308 308 308 308 310 310 310 310 310 310 310 311 312 310 309 309 309 309 309 309 310 309 308 308 308 308 309 309 308 309 309 308 309 309 309 309 309 309 309 308 308 308 308 309 308 309 309 309 309 309 310 310 310 310 309 309 309 310 310 311 312 313 314 316 317 317 317 317 318 318 320 320 322 330 334 333 330 327 328 335
306 306 307 308 308 309 309 309 309 308 308 309 310 310 310 310 311 310 311 312 310 309 309 309 309 310 309 309 309 308 308 308 308 309 309 308 308 308 308 309 309 309 309 309 308 308 308 308 308 308 309 309 309 309 309 310 310 310 311 310 310 310 309 309 309 310 311 312 314 316 318 317 319 320 319 320 320 320 320 324 335 341 337 333 334 337 340
306 307 308 309 309 309 309 309 309 309 309 309 309 310 309 309 310 311 311 312 310 309 310 310 309 310 309 308 308 308 309 309 308 309 308 308 308 308 308 309 310 310 309 308 308 308 309 309 309 309 310 310 310 310 310 310 310 310 310 310 310 310 310 310 309 309 310 311 314 318 319 319 321 325 325 323 321 319 323 331 337 337 336 336 338 339 337
307 308 309 309 309 309 309 309 309 309 309 309 310 310 309 309 310 311 311 311 310 309 309 310 310 309 309 308 309 309 308 308 308 308 308 308 308 308 308 309 309 309 308 307 308 309 310 311 311 311 311 311 311 311 311 311 311 311 310 310 310 310 310 310 310 310 310 311 313 318 320 320 323 329 328 327 327 326 331 336 335 333 333 335 336 336 334
307 309 309 308 309 309 309 309 309 309 309 309 310 310 309 309 310 310 311 311 311 310 310 310 310 309 309 309 309 308 308 308 308 308 308 308 308 308 308 308 308 309 309 308 309 310 311 311 311 311 311 312 313 313 313 312 311 311 311 310 310 310 310 310 310 310 311 311 313 316 318 318 323 329 330 329 331 332 334 337 335 331 329 331 332 333 331
308 309 309 308 308 308 309 309 309 309 309 309 310 310 310 309 309 310 310 311 311 310 310 310 310 309 309 309 309 309 308 308 308 308 308 308 308 308 308 307 308 310 309 309 310 311 312 311 311 311 312 312 312 313 312 312 312 312 311 310 310 310 310 310 310 310 311 312 313 316 319 320 324 330 329 326 327 328 330 336 335 330 326 327 328 328 328
308 308 308 308 308 308 309 309 309 309 309 309 310 311 310 310 309 309 310 310 311 311 310 310 309 309 309 309 308 309 309 308 308 308 308 309 309 308 307 308 309 309 308 309 311 312 311 311 311 311 312 312 312 312 313 312 312 312 311 310 310 309 309 310 310 310 311 312 314 316 319 322 327 328 325 323 325 326 328 336 337 329 324 324 324 324 324
308 308 308 308 308 309 309 309 309 309 309 309 310 311 310 310 310 310 310 310 310 310 309 309 309 309 310 309 309 309 308 308 308 308 308 308 308 308 308 308 309 308 309 310 311 312 311 311 311 311 312 312 312 312 312 312 312 313 313 311 310 309 310 310 310 311 312 312 314 315 317 322 325 324 322 322 323 324 331 340 337 326 322 322 322 322 321
308 308 307 308 309 309 309 309 309 309 308 309 310 311 311 310 310 311 311 310 310 310 309 309 309 309 310 310 309 309 309 308 309 309 308 308 309 308 308 308 308 309 310 311 312 313 311 311 311 311 312 312 311 311 312 312 312 313 313 312 310 310 310 310 310 311 311 312 314 315 316 320 323 322 321 321 323 329 336 337 329 323 321 320 319 319 318
308 308 308 308 308 308 309 309 308 308 308 308 310 311 311 310 310 310 311 311 311 310 310 310 309 309 310 309 309 309 309 309 309 309 309 309 309 309 308 308 309 310 310 311 312 313 311 311 311 311 311 312 311 311 312 311 312 314 313 312 312 311 311 311 311 311 311 311 313 315 317 319 320 320 321 321 326 334 332 324 320 320 320 319 318 317 317
308 308 308 308 308 308 309 308 308 308 308 308 310 311 311 310 310 310 311 312 311 310 310 310 310 310 310 310 309 309 309 309 309 310 310 310 309 309 309 309 309 310 310 310 311 312 312 311 312 311 311 312 311 310 311 312 312 314 314 313 313 312 311 311 311 311 311 312 313 315 318 318 318 320 321 321 324 326 321 317 319 320 318 318 317 316 315
308 307 308 308 308 308 308 308 308 308 308 308 309 311 311 310 310 310 311 311 311 311 311 310 310 310 310 311 310 310 310 310 310 310 310 309 309 310 310 310 310 310 311 311 311 312 312 311 311 311 310 311 311 311 312 313 313 313 313 314 314 314 313 313 312 312 313 314 315 317 318 317 316 318 320 319 318 317 316 317 319 318 317 317 317 317 316
307 307 308 308 308 308 308 308 308 308 308 308 309 311 311 311 311 310 310 310 310 311 311 311 311 311 311 311 311 310 311 310 310 310 310 309 310 310 310 310 311 310 310 311 312 312 312 311 310 311 311 311 311 311 312 313 313 312 312 313 314 314 314 314 315 316 315 315 316 317 316 315 315 317 318 316 315 314 315 316 317 317 317 316 316 317 316
307 308 308 309 309 309 309 308 308 308 308 308 309 311 311 310 310 310 310 310 311 311 311 312 312 312 311 311 311 311 311 311 311 310 310 309 310 310 310 310 310 309 310 311 311 312 311 311 310 311 311 311 310 311 312 313 313 312 312 312 311 311 312 313 314 315 315 315 315 315 315 314 315 316 316 316 315 315 315 316 317 316 315 315 315 316 316
308 309 309 310 310 310 310 309 309 308 308 308 309 310 310 310 310 310 311 311 311 312 313 312 311 311 311 311 312 312 311 311 311 311 310 310 310 311 311 311 309 309 310 311 310 311 311 311 311 311 311 311 310 311 312 313 312 311 312 312 310 311 312 313 314 313 314 315 316 315 314 313 314 316 316 316 316 315 315 316 316 315 315 315 315 316 316
309 309 310 311 311 311 311 310 309 309 308 308 309 310 310 310 310 310 311 311 311 312 314 313 311 311 311 311 312 312 312 312 312 311 311 310 310 310 311 310 309 310 310 310 310 311 311 311 311 311 311 311 311 311 311 312 311 311 311 311 310 311 312 313 313 313 314 315 315 313 312 313 315 317 317 316 315 314 314 315 316 315 315 315 315 316 317
309 310 311 311 311 311 311 311 310 309 308 309 309 310 311 311 310 310 310 311 311 312 313 313 312 311 312 312 312 312 312 312 312 312 311 310 310 310 310 310 310 310 311 311 310 310 311 311 312 312 311 311 312 312 311 311 311 310 310 310 310 311 313 313 313 314 314 315 314 313 313 315 317 317 315 314 313 313 314 314 315 315 316 315 315 316 317
310 310 311 312 311 311 312 311 311 310 309 309 310 311 311 311 310 310 310 311 312 313 313 313 313 312 312 312 312 312 312 312 311 311 311 311 311 310 310 311 310 310 311 311 310 310 311 312 312 312 312 312 312 313 313 313 312 310 310 310 311 311 311 311 312 314 314 314 313 313 313 315 315 314 313 313 314 314 314 314 315 316 316 315 315 316 317
311 310 311 312 311 311 311 311 312 312 311 310 311 312 312 311 311 311 310 310 312 313 313 313 313 313 312 312 312 312 312 312 311 312 311 311 311 311 311 311 311 310 310 311 311 311 311 311 311 311 311 312 312 313 313 313 312 311 310 310 311 311 310 310 311 311 312 312 311 312 313 313 313 312 313 313 313 314 315 315 316 316 315 315 316 316 316
312 311 311 311 311 312 312 311 311 311 311 311 312 313 314 313 312 311 311 310 311 312 312 313 314 313 312 312 312 312 312 312 311 311 311 311 311 311 311 311 311 310 310 311 311 311 310 310 311 310 310 312 312 312 311 311 311 310 310 310 311 311 310 310 310 310 311 311 310 311 312 313 312 312 313 313 314 315 316 316 316 316 316 316 316 315 316
313 312 311 311 311 312 312 312 312 311 310 311 313 315 316 316 314 312 311 311 311 311 312 313 315 313 312 312 313 313 312 312 311 311 311 311 312 312 312 311 311 312 312 312 312 311 310 311 311 309 309 311 311 310 309 309 309 309 309 310 311 311 311 311 311 310 310 310 310 310 311 312 311 311 312 313 314 315 316 317 317 317 317 316 315 315 316
313 313 313 312 311 311 311 312 312 311 311 312 315 317 317 317 315 313 311 311 311 311 311 312 315 314 313 313 314 313 313 313 312 312 313 312 312 313 313 312 311 312 313 312 311 311 311 311 311 309 309 310 311 309 308 308 308 308 308 310 311 311 311 311 310 310 310 310 309 309 310 310 311 311 312 312 313 314 316 317 318 318 318 316 316 316 316
311 312 314 313 312 311 311 311 312 311 312 313 315 316 316 314 312 311 310 311 312 312 312 314 316 316 315 314 314 313 314 313 313 313 313 314 314 314 314 314 313 313 314 313 311 310 310 312 312 310 309 310 311 309 308 307 308 308 309 309 310 310 310 310 310 309 309 309 309 309 310 310 310 310 311 311 312 313 315 316 317 318 317 317 316 316 317
310 311 314 315 313 311 310 311 311 311 311 312 313 314 313 312 311 310 310 311 312 312 312 314 316 317 316 315 314 314 314 314 314 313 313 315 316 315 315 315 315 314 314 313 312 311 311 312 312 310 309 311 311 310 308 308 309 309 309 309 309 310 310 310 310 309 309 309 309 310 310 310 310 310 311 311 312 313 313 315 317 317 316 316 316 315 316
311 312 315 317 315 312 311 310 310 310 311 313 315 315 314 312 310 310 310 312 313 313 312 314 316 318 317 316 315 315 314 315 315 315 315 316 316 315 315 315 315 315 314 313 313 313 313 312 312 310 310 311 310 309 309 309 309 308 308 308 309 309 309 309 309 309 309 309 309 309 310 310 310 310 310 310 311 312 313 315 316 317 316 316 316 315 316
311 313 316 318 316 312 310 309 310 312 314 316 317 317 314 311 309 309 310 312 313 314 315 314 315 317 318 318 318 317 315 315 316 316 316 316 316 315 314 315 315 315 314 314 314 313 312 311 311 311 310 309 309 310 310 310 309 308 308 308 308 309 309 309 309 308 308 308 308 308 309 309 308 308 308 308 309 310 311 313 314 317 318 318 317 317 316
311 313 315 315 313 311 311 311 312 314 316 317 317 315 312 310 309 310 311 312 312 314 315 316 316 317 318 319 318 317 315 316 317 316 315 316 316 315 314 315 316 315 314 313 314 313 311 311 311 310 309 309 310 310 311 310 309 309 309 309 308 309 309 309 309 308 307 308 308 308 308 308 308 308 308 308 308 309 310 311 312 315 317 319 319 319 317
312 313 314 313 312 314 316 316 315 316 316 315 313 311 310 310 311 311 311 311 311 312 313 315 316 317 317 318 318 316 316 317 317 316 316 317 316 315 314 315 316 315 314 314 314 313 312 311 311 310 309 310 310 311 311 310 310 310 310 309 308 309 309 309 308 308 308 308 308 307 307 307 307 307 307 307 307 308 309 310 311 313 315 317 319 319 319
312 312 314 315 317 319 321 319 317 315 314 312 311 312 312 311 312 313 313 312 313 313 312 314 316 316 316 318 318 316 316 317 317 317 317 317 316 316 316 316 316 315 314 314 314 313 312 312 311 310 309 310 310 310 310 309 309 310 310 309 308 308 308 308 308 308 308 308 308 308 308 308 307 307 307 307 307 308 309 309 309 311 313 315 318 319 320
312 314 317 319 320 321 322 319 315 313 312 311 312 315 315 314 315 317 316 314 315 315 313 315 317 317 316 318 319 317 316 317 318 318 317 316 316 317 317 316 316 316 314 314 314 314 313 312 311 310 309 309 309 310 310 310 310 310 310 309 309 309 309 308 308 308 309 309 308 308 308 308 308 307 307 307 307 307 308 308 308 310 311 314 317 319 320
315 318 321 321 321 320 317 314 312 313 314 314 315 317 318 316 317 318 318 317 318 318 316 316 317 318 317 318 319 318 316 317 318 319 318 316 316 317 317 317 317 316 314 313 314 313 313 311 310 310 309 309 309 309 309 310 310 310 310 310 310 310 309 309 309 309 309 308 308 308 308 308 308 307 306 307 306 306 307 308 308 309 310 312 315 317 319
319 320 321 321 320 317 314 313 313 314 316 317 317 318 318 317 317 318 318 317 317 317 316 316 317 317 317 318 318 318 318 318 318 318 318 318 317 316 317 318 317 315 313 312 313 313 312 311 310 310 310 309 309 308 308 309 309 308 309 310 310 309 309 310 309 309 308 308 308 308 308 308 308 307 307 306 307 307 307 308 308 308 309 310 312 315 318
317 317 317 317 316 315 315 315 315 317 318 319 318 317 316 316 316 317 317 316 315 314 316 316 315 315 317 318 318 318 319 319 319 318 318 318 317 317 318 317 316 314 313 312 313 313 312 310 309 310 310 310 309 308 308 309 309 308 308 310 310 309 309 310 309 309 308 308 308 308 307 308 307 307 307 307 306 307 307 307 308 308 308 308 310 312 315
312 314 314 316 318 319 318 318 319 320 318 316 314 314 315 315 315 314 314 315 315 315 315 316 315 315 317 318 319 319 319 318 318 318 319 318 317 317 317 316 315 314 313 312 313 313 311 309 309 310 310 309 309 308 307 308 309 308 308 310 310 309 309 309 309 309 308 308 308 307 307 307 307 307 307 306 306 306 306 307 307 307 307 307 308 309 312
315 316 317 319 321 321 320 319 319 318 316 313 313 315 316 316 315 315 314 314 315 314 313 314 314 314 315 318 320 320 320 318 317 318 318 318 318 318 317 315 314 313 313 312 312 312 310 310 310 310 310 310 309 308 307 308 308 308 308 309 308 308 307 308 309 309 308 308 308 307 307 307 306 306 306 306 306 306 306 306 306 306 306 306 306 307 309
319 319 319 320 319 317 315 315 313 313 314 314 314 316 316 315 315 316 315 313 312 312 312 313 313 313 315 318 320 319 319 318 318 317 317 317 317 317 316 314 313 312 312 312 311 310 310 310 310 310 310 310 309 307 307 307 308 308 308 308 308 308 308 308 309 309 309 308 308 308 307 307 307 306 306 306 306 306 306 305 306 306 306 306 306 306 307
322 320 318 318 316 313 313 313 312 312 315 315 315 315 315 315 316 316 315 314 313 313 313 312 313 313 316 318 320 319 318 319 319 318 316 315 315 315 314 313 312 312 311 311 310 309 309 309 309 309 310 310 309 307 307 307 307 308 309 308 307 308 308 308 308 308 308 308 308 308 307 307 307 306 306 305 306 306 306 305 305 305 305 305 305 305 306
322 319 316 315 315 314 314 315 314 314 315 315 315 315 315 315 315 316 317 316 314 314 313 313 314 316 317 319 319 318 318 318 318 316 314 313 314 313 313 312 312 311 311 310 309 309 308 309 309 309 310 309 308 307 307 306 307 308 309 308 308 308 308 308 308 308 307 307 308 308 308 307 307 306 306 305 305 305 305 305 305 305 305 305 305 305 305
320 316 314 315 315 315 315 315 315 316 315 315 315 316 316 315 315 317 318 317 315 313 314 314 315 316 316 316 316 316 315 315 315 314 313 312 312 312 312 312 311 311 311 310 310 309 308 309 309 310 309 309 308 307 306 306 306 307 308 308 308 308 308 308 308 308 308 308 308 308 308 307 306 306 306 306 305 305 305 305 305 305 304 304 305 305 305
320 317 315 315 316 316 315 316 316 316 317 318 318 318 317 316 316 316 316 315 314 314 314 313 313 314 314 313 312 312 313 314 313 312 312 312 312 311 311 310 310 310 310 310 309 309 308 309 309 309 309 308 307 307 306 305 306 307 307 307 307 307 307 306 306 306 307 307 307 307 307 307 306 306 306 306 305 305 305 305 304 304 304 304 304 304 304
319 317 317 316 316 316 316 317 317 317 318 320 320 319 318 315 315 315 314 313 313 313 313 312 312 312 311 310 310 311 312 313 313 313 313 313 312 311 310 310 310 310 310 310 310 309 308 308 309 309 308 308 307 307 306 306 306 307 308 307 306 306 306 305 304 304 305 306 306 306 306 307 306 306 306 306 305 305 305 304 304 304 304 304 304 304 304
315 315 315 316 316 316 316 316 318 319 320 320 321 320 317 314 314 314 313 313 313 312 312 312 313 311 309 309 311 312 312 312 314 314 314 313 312 311 311 310 310 309 309 310 309 309 308 308 308 308 308 307 307 306 306 306 307 307 307 307 306 305 305 304 304 303 303 304 304 304 305 307 306 306 306 305 305 305 305 305 305 304 304 303 303 303 304
313 314 315 316 317 316 317 318 319 320 320 320 320 318 317 316 314 313 312 313 313 312 312 312 312 311 310 311 312 313 313 313 314 314 313 312 312 312 311 310 310 310 310 309 309 308 308 309 309 308 308 307 307 306 307 306 306 306 306 306 306 305 304 304 303 303 303 303 303 303 304 306 307 307 306 305 305 305 305 305 305 304 304 304 303 303 303
Wind_Speed
23 22 22 22 23 23 24 24 24 27 28 24 20 14 6 3 4 6 18 22 13 5 4 4 2 5 4 3 4 3 2 3 3 3 4 2 2 3 1 2 4 2 3 6 6 6 6 6 6 4 3 1 3 4 5 6 6 5 4 2 2 3 5 7 8 8 11 16 14 10 9 9 9 9 9 11 15 14 12 7 5 7 11 11 8 8 7
21 20 21 21 22 22 22 22 23 24 25 22 17 10 3 3 2 4 17 23 11 2 4 4 4 6 4 4 5 3 4 5 4 3 5 4 2 2 1 2 4 3 4 7 8 7 5 5 4 4 3 1 4 4 4 4 4 4 3 3 4 3 5 6 7 8 8 11 13 12 9 7 9 12 11 8 10 10 8 5 4 6 10 12 10 9 7
20 19 21 20 20 20 19 20 21 21 23 20 13 6 3 3 1 2 10 17 11 5 5 4 4 5 5 6 5 3 4 5 5 4 4 4 3 3 2 3 4 5 6 7 7 7 6 5 4 3 4 1 1 2 3 3 4 4 6 7 5 5 5 5 7 10 9 7 6 7 6 6 10 13 12 8 9 11 9 8 9 8 9 11 10 8 6
19 19 20 19 19 19 18 19 19 19 21 19 11 5 4 2 2 3 4 7 8 6 5 5 4 4 3 4 5 4 3 4 4 4 3 4 3 2 2 3 3 3 5 5 5 6 6 5 5 5 5 4 1 2 2 4 5 4 6 7 5 4 6 8 9 12 10 7 6 6 7 7 9 11 10 9 9 10 10 10 13 12 10 11 11 10 9
19 19 19 18 18 18 17 18 18 18 18 16 9 4 3 2 3 5 3 3 5 5 6 6 5 4 3 2 3 5 4 3 3 3 2 3 3 1 2 2 2 2 4 4 4 5 5 6 7 7 6 5 4 4 5 6 4 3 5 6 4 5 7 11 14 16 17 16 14 12 11 11 10 9 8 8 8 9 11 14 16 13 10 14 15 11 11
18 17 17 16 16 17 17 17 17 17 15 13 8 4 3 3 3 3 2 2 4 5 5 6 6 6 4 2 2 4 4 4 3 1 1 2 2 1 1 1 1 2 3 4 4 5 6 6 5 5 6 6 6 6 6 6 5 5 6 4 3 6 8 10 13 17 19 19 18 15 13 12 12 12 12 10 8 9 12 15 17 13 10 12 12 6 8
17 16 15 15 15 16 16 15 16 16 13 10 7 4 4 3 3 3 1 1 4 5 5 5 5 6 4 3 4 4 4 4 3 2 3 2 1 2 2 0 2 3 4 5 5 5 6 6 5 6 7 8 8 6 6 5 4 5 6 4 4 6 7 9 12 14 17 20 20 18 15 15 15 14 14 14 13 12 12 13 14 14 11 11 10 7 9
16 14 14 13 13 15 15 15 15 15 13 9 7 6 5 3 3 3 1 3 4 4 4 3 3 5 3 2 4 4 3 4 4 3 4 4 2 2 3 3 4 5 5 6 7 6 7 8 9 9 9 9 7 6 5 4 3 4 5 4 4 5 6 9 10 10 13 17 18 18 17 16 17 17 16 16 15 14 14 12 12 12 12 11 12 12 12
14 13 12 12 13 14 14 14 14 14 12 8 6 7 6 5 4 3 1 3 3 2 3 3 2 4 4 3 4 4 4 5 5 3 2 4 3 3 4 5 6 6 6 7 8 8 8 11 12 12 11 11 9 7 6 6 5 5 5 4 5 6 6 8 8 8 10 12 15 17 16 16 18 19 18 18 17 14 13 12 12 12 13 13 13 12 10
12 11 11 12 13 13 13 13 12 11 9 7 4 4 5 4 3 3 2 1 2 2 3 3 2 3 4 3 4 4 3 4 5 2 1 1 3 3 5 7 7 6 7 7 7 9 10 12 13 12 13 14 13 11 12 12 11 8 7 6 6 6 6 6 7 8 9 10 12 13 13 14 15 15 16 18 17 15 13 13 11 9 10 12 11 7 3
11 10 11 12 13 13 12 11 11 9 7 6 4 3 4 3 2 2 2 1 2 2 2 3 3 4 3 3 3 4 4 4 4 3 2 3 4 4 6 8 7 6 6 7 8 10 12 14 14 14 15 17 17 15 16 17 15 12 10 8 7 8 8 7 7 8 8 10 11 10 11 14 11 8 12 17 18 18 17 12 8 6 5 7 6 4 4
9 9 11 12 12 12 12 10 9 8 6 4 3 2 4 4 2 1 2 2 3 2 2 3 4 3 3 4 4 4 5 5 4 5 6 7 6 5 6 7 7 5 6 9 11 12 13 15 15 15 16 17 18 18 19 20 18 14 13 11 9 9 9 8 7 8 8 8 8 8 11 12 7 4 8 13 16 19 13 4 3 4 2 4 5 5 5
9 10 11 11 11 11 10 10 9 7 5 3 1 2 3 3 2 1 2 2 2 3 3 3 3 3 4 4 5 5 5 6 5 5 7 7 6 5 5 5 7 7 9 11 12 12 11 11 12 12 12 12 13 15 17 19 19 17 16 14 13 12 9 7 7 8 8 7 7 8 9 8 6 4 4 6 10 13 11 7 4 2 2 4 5 5 6
9 11 11 10 10 9 9 9 9 7 5 3 1 0 1 1 1 1 1 2 2 3 2 1 2 4 5 5 6 6 4 5 5 4 4 5 6 6 5 5 7 8 8 9 9 8 7 7 7 8 8 7 7 8 9 10 14 18 19 17 15 13 10 8 8 8 8 8 8 8 9 10 8 5 2 2 2 5 5 3 3 2 1 3 4 4 6
8 10 10 8 8 8 9 9 8 7 5 3 0 0 2 2 1 1 0 2 3 1 1 2 4 5 5 5 5 5 4 4 5 4 3 3 5 6 6 6 8 8 7 6 6 5 5 5 6 6 6 5 5 5 5 5 7 12 16 17 17 15 13 10 9 8 8 8 8 8 10 10 5 3 4 6 5 2 2 1 3 3 1 2 2 4 6
8 9 8 7 7 8 8 8 7 6 5 2 0 1 2 4 4 3 1 2 2 1 3 4 4 4 4 4 4 4 4 4 5 4 2 1 3 5 6 5 6 7 6 4 4 4 4 5 5 5 5 5 6 6 5 5 4 5 11 16 18 17 14 11 9 8 8 8 8 7 8 6 2 6 7 7 5 4 3 4 4 2 1 3 3 4 6
8 8 6 5 6 7 8 8 7 5 3 2 1 1 1 3 5 4 2 1 1 2 2 3 3 3 3 3 2 2 3 3 4 4 2 2 4 6 5 4 5 5 5 4 3 3 5 5 5 6 5 3 3 5 3 3 3 3 8 13 16 15 12 10 10 10 9 10 8 7 8 4 4 8 9 8 6 4 5 7 4 2 3 4 5 5 7
7 7 5 5 6 6 8 8 7 4 2 1 2 1 1 2 4 4 3 1 2 1 1 2 4 3 3 3 3 3 3 3 2 3 4 4 4 5 5 4 4 2 3 4 4 3 5 6 4 5 6 2 1 3 2 1 4 5 8 10 11 12 10 9 11 11 11 12 9 7 8 3 7 10 10 9 6 5 6 5 1 3 4 5 6 6 7
7 6 5 5 5 5 7 8 5 3 1 1 1 1 1 2 3 4 2 1 2 2 1 1 4 4 2 3 3 2 2 3 2 3 5 3 4 7 6 3 2 2 2 3 4 3 4 5 3 3 5 2 1 3 2 2 4 5 9 11 9 10 10 8 10 10 10 10 8 8 7 2 11 12 7 5 4 5 3 1 2 2 5 6 6 7 8
7 6 4 4 4 4 6 6 4 2 1 1 1 2 1 1 2 3 2 2 3 3 2 0 2 4 2 3 4 3 3 3 3 3 5 4 5 8 5 1 1 4 3 4 5 2 3 5 4 2 4 4 2 3 4 2 2 2 3 8 6 5 7 8 9 9 8 8 8 8 6 3 12 12 5 3 3 1 1 3 3 1 5 5 5 6 8
6 5 4 4 4 4 5 5 3 1 1 2 2 2 2 1 1 2 3 3 3 2 1 2 2 6 5 6 7 8 7 6 5 4 5 6 5 5 4 4 5 4 3 3 4 2 2 4 4 2 3 4 3 5 7 4 3 6 4 2 2 1 4 5 6 6 7 8 7 3 3 5 9 9 4 3 3 2 3 5 3 2 4 5 5 5 7
5 4 5 5 4 4 4 3 1 1 2 3 2 1 1 1 1 1 2 3 5 6 6 7 8 9 8 8 9 11 11 10 9 8 7 5 5 4 4 5 5 3 3 3 3 3 2 3 4 4 4 4 3 5 8 4 3 5 6 2 0 2 2 2 4 4 5 7 5 4 7 7 7 5 2 1 1 1 4 6 5 4 4 5 6 6 7
4 4 4 4 4 4 4 3 2 1 2 3 3 1 1 2 2 2 3 4 6 9 10 10 9 8 7 6 6 8 9 9 10 10 9 6 5 4 3 3 4 3 2 2 3 4 4 3 3 4 4 4 4 5 5 4 4 4 4 2 2 4 4 3 4 4 6 7 6 6 8 10 9 6 2 2 2 2 4 6 7 7 7 6 7 7 8
3 3 2 3 4 4 4 4 3 2 2 3 3 1 1 2 2 2 4 4 4 4 6 7 5 2 2 3 4 5 6 7 8 9 9 9 6 4 1 1 3 3 3 3 3 3 3 3 3 2 2 3 4 4 3 3 3 4 3 2 2 4 5 4 4 4 5 4 2 4 9 13 11 6 4 4 3 3 5 7 7 8 9 9 9 8 9
2 1 1 2 3 3 3 3 3 2 1 2 2 1 1 2 2 2 3 3 2 3 2 2 2 3 4 4 5 6 6 6 7 8 9 12 10 6 4 3 5 6 6 6 5 2 2 2 2 2 3 2 2 4 4 3 3 3 4 4 3 4 4 4 4 5 5 4 3 7 12 13 8 4 3 2 4 7 8 8 8 9 11 10 9 9 8
2 1 1 1 2 2 2 2 2 1 2 2 2 1 1 2 2 2 2 3 2 2 3 2 4 3 4 6 6 7 8 6 3 3 6 9 10 9 8 7 7 7 6 5 3 1 1 2 2 2 3 2 3 3 3 3 3 3 4 6 6 6 5 6 6 5 5 4 5 10 12 7 3 2 4 6 8 10 11 11 10 10 11 11 10 9 8
3 3 3 2 1 1 1 1 1 1 2 2 2 2 2 2 2 2 2 3 3 2 2 3 4 3 4 8 10 9 7 6 4 2 2 4 5 6 6 6 5 4 3 1 0 1 1 1 2 3 3 2 3 3 2 1 1 1 5 8 8 5 5 7 6 4 3 4 7 9 9 6 5 8 12 12 11 11 12 12 11 10 10 11 11 10 9
3 4 4 4 3 1 1 1 1 1 2 3 3 3 4 3 3 3 3 3 3 3 2 3 4 3 2 5 9 9 8 7 6 5 5 3 3 3 3 3 2 1 2 1 1 1 2 3 4 3 2 2 3 3 2 1 1 3 7 10 9 6 6 7 7 5 5 8 10 9 7 8 9 12 13 13 12 11 12 12 11 10 10 11 11 11 10
5 5 6 6 5 4 3 2 2 3 3 2 3 5 6 5 4 4 4 3 3 3 3 4 4 3 1 2 5 7 7 7 7 8 7 6 5 4 2 1 2 3 3 2 1 2 3 3 3 3 3 3 3 3 4 5 5 6 10 12 10 8 8 8 8 8 8 9 11 10 9 9 10 12 12 11 10 10 10 11 11 10 9 9 9 9 9
5 6 7 7 7 7 6 4 3 3 3 3 4 5 5 4 4 5 5 3 2 3 3 3 2 1 1 0 2 4 5 5 6 7 7 6 5 4 3 2 2 2 1 2 2 2 3 2 2 4 5 4 3 3 5 6 6 7 10 13 11 10 10 8 8 8 8 9 11 11 9 8 9 10 10 9 9 10 10 9 9 9 8 8 9 8 7
7 6 7 8 9 9 8 7 6 4 4 4 4 4 2 2 3 4 5 3 2 2 3 3 3 1 1 2 2 2 2 3 3 3 3 3 2 1 1 0 1 1 2 2 2 2 3 3 3 5 7 5 4 4 5 6 6 7 12 14 12 11 11 9 9 9 9 10 12 10 7 7 9 9 8 10 12 12 10 9 8 7 6 7 8 8 7
9 8 7 8 10 11 11 9 8 6 5 6 7 6 5 3 1 3 4 3 2 3 3 3 3 3 1 2 3 4 4 3 2 3 2 2 2 1 2 2 1 1 1 2 1 2 3 3 3 5 7 5 2 3 6 7 7 9 13 13 11 11 10 9 9 10 10 12 13 11 9 11 13 11 10 11 12 11 10 10 8 5 5 7 9 7 6
11 10 8 7 9 11 12 11 10 8 8 9 11 10 9 8 6 4 4 3 2 3 3 3 4 3 1 0 3 6 6 5 4 3 3 3 2 2 2 2 2 1 2 1 2 1 2 3 3 4 6 4 2 3 6 8 9 10 13 12 11 11 11 9 9 9 9 10 11 10 10 13 14 12 11 11 10 10 11 11 8 4 4 6 7 7 6
11 10 8 6 7 10 11 11 9 8 8 9 8 5 5 7 6 5 5 3 3 2 2 3 4 3 1 1 2 5 5 4 3 3 3 2 2 3 3 2 2 2 1 0 2 1 1 2 3 4 4 4 3 4 6 8 11 11 12 12 11 11 11 11 11 11 10 9 9 9 9 10 10 10 11 11 12 12 12 11 10 6 3 4 5 6 5
11 9 7 6 6 8 8 8 7 7 7 7 4 2 2 4 5 6 5 3 3 3 1 2 3 4 3 3 0 3 3 4 3 3 2 1 1 2 3 2 3 2 1 0 2 2 2 2 3 4 5 5 5 5 5 9 12 11 11 12 13 12 11 11 13 14 13 11 10 11 11 11 11 12 12 12 13 13 12 10 10 9 6 4 5 4 4
9 7 5 2 3 5 5 5 6 6 5 3 2 2 3 4 5 4 4 4 4 4 2 2 3 4 4 4 3 2 2 3 2 1 2 1 1 2 2 3 3 0 1 1 2 1 2 2 2 4 5 5 5 5 6 9 11 11 11 12 12 11 11 12 14 15 15 14 14 14 14 14 15 13 12 13 13 13 12 11 11 11 9 7 6 4 3
7 4 2 3 4 4 3 4 5 6 4 1 1 3 4 4 4 3 3 4 5 4 3 3 4 3 4 4 2 1 1 2 1 2 2 2 1 1 2 3 2 0 1 2 1 1 1 2 2 4 5 5 5 6 7 8 10 10 11 11 11 11 11 11 12 15 15 14 15 15 15 16 16 14 13 15 14 14 14 13 11 10 10 8 7 6 4
4 2 1 2 3 3 2 2 4 5 4 3 3 3 4 3 2 3 2 2 3 3 3 4 4 3 3 3 1 1 0 1 2 2 2 1 1 1 2 2 2 1 2 1 1 2 0 1 2 3 4 5 6 7 8 8 8 7 8 10 10 10 11 10 11 14 15 14 14 15 16 16 17 16 15 15 15 14 13 11 10 9 9 8 9 8 5
2 0 2 4 3 2 2 3 6 6 6 4 2 2 2 2 2 2 2 2 2 2 3 4 4 3 4 4 1 2 1 3 3 2 1 1 1 1 1 1 1 2 3 1 1 1 2 1 1 1 3 5 7 8 8 8 7 7 8 9 10 11 12 11 11 12 13 13 14 14 14 14 15 14 14 14 14 14 13 12 11 11 10 10 11 9 5
2 2 3 3 1 3 3 5 6 6 4 3 3 2 2 2 2 1 1 2 3 2 3 3 3 2 3 5 4 1 2 3 3 2 1 0 0 1 2 1 1 2 4 2 1 1 2 2 2 3 3 4 7 8 7 7 7 7 7 8 10 12 13 12 12 13 14 13 14 15 15 14 14 13 13 14 14 14 14 14 14 14 13 13 14 13 8
2 2 2 2 2 2 3 5 5 3 3 3 2 2 2 2 2 1 2 3 2 1 2 2 4 2 2 3 4 2 2 2 2 3 2 1 1 1 3 1 1 2 4 2 1 1 2 3 3 4 3 4 6 7 8 7 7 7 7 8 10 12 14 13 14 15 15 13 13 14 17 18 17 15 15 16 14 13 13 14 16 18 18 16 16 16 13
5 4 2 1 0 2 4 4 4 3 3 2 2 2 3 2 1 1 2 2 2 1 1 2 4 4 2 2 3 2 0 1 1 1 2 1 1 2 3 1 1 3 3 2 1 1 2 3 3 3 3 4 6 7 7 7 6 6 8 9 10 11 13 12 12 14 15 14 14 15 17 19 19 18 18 19 17 16 16 17 19 21 21 19 18 19 18
4 4 3 2 2 3 3 3 3 3 2 2 2 2 3 2 1 2 2 1 1 1 1 2 2 2 1 1 1 0 1 0 1 2 2 0 0 2 3 2 2 2 1 1 1 2 3 3 4 2 2 3 5 6 7 7 6 6 7 8 10 11 13 13 12 14 15 16 16 16 17 18 19 19 19 20 19 18 19 21 21 22 22 21 20 21 21
2 2 2 2 3 3 2 2 2 2 2 3 2 3 5 5 3 3 3 1 0 1 2 1 2 3 1 1 1 1 1 1 1 2 2 1 1 3 3 2 1 0 0 1 2 3 3 3 2 2 1 2 4 6 6 6 5 5 6 7 9 11 13 13 13 13 14 15 16 16 16 17 19 19 20 20 20 19 19 21 22 22 22 21 21 23 23
2 2 2 2 2 2 1 1 2 3 3 3 2 4 7 7 5 5 5 4 3 4 4 3 3 4 2 1 1 1 1 1 1 2 2 2 3 3 2 2 1 1 2 2 2 3 3 2 1 1 2 2 4 5 6 6 5 5 5 6 8 9 11 12 11 11 11 13 15 15 16 17 18 19 19 20 21 20 20 20 21 22 22 22 22 23 23
3 2 1 3 2 1 2 2 2 2 3 4 5 6 7 7 5 5 5 4 4 6 6 5 4 4 2 0 0 1 1 2 2 2 1 2 3 2 1 2 2 2 3 3 3 3 4 3 2 1 1 2 3 4 5 5 5 4 4 5 6 8 9 11 11 11 11 13 14 15 16 17 17 18 19 20 21 21 21 21 21 21 21 22 23 23 23
3 1 1 3 2 2 3 3 3 3 5 6 6 5 6 7 6 5 4 4 5 5 4 4 4 3 2 1 1 1 2 2 2 2 1 2 3 2 1 2 3 2 2 3 4 3 2 2 1 1 1 1 2 4 5 5 5 4 4 5 6 7 9 10 11 11 12 13 14 14 15 16 17 17 18 19 20 21 21 21 21 21 21 21 21 22 23
2 1 2 3 2 3 4 3 4 5 6 6 4 4 6 5 4 4 4 5 6 5 3 3 2 2 1 1 2 2 2 2 2 1 1 2 3 2 1 3 4 2 2 3 3 2 2 1 2 2 2 2 1 2 3 4 5 5 4 5 6 8 8 9 10 11 12 13 13 13 14 15 16 17 17 17 18 20 21 21 20 20 20 21 21 21 22
2 1 2 2 3 4 4 4 5 7 6 5 5 4 4 2 2 4 4 4 5 4 2 1 1 2 1 1 2 3 2 1 1 1 1 2 3 3 2 4 4 3 2 2 1 2 2 2 3 3 3 3 2 2 2 4 4 4 4 6 7 7 8 9 11 12 12 12 12 13 13 14 14 15 16 16 16 17 19 20 20 20 20 20 20 21 21
2 2 3 4 4 5 4 4 6 7 6 6 3 1 1 1 2 3 2 3 4 3 0 1 1 2 1 2 3 2 1 2 2 2 1 2 3 3 3 4 4 3 2 1 1 1 1 3 4 3 3 3 3 2 3 3 3 3 4 6 6 6 8 10 12 12 12 11 12 12 12 12 12 13 14 15 15 16 17 19 20 20 20 19 19 20 21
2 3 4 4 5 6 6 6 6 7 8 8 4 0 1 1 3 3 2 2 4 3 1 1 0 1 2 3 3 2 1 1 1 2 3 3 2 2 3 4 4 3 2 1 1 1 2 3 4 3 4 4 3 2 3 3 3 3 4 5 5 5 8 10 11 11 12 12 12 12 12 11 10 11 12 13 15 15 16 17 18 19 18 18 18 19 19
3 3 4 4 4 5 5 5 5 5 7 7 4 1 1 2 2 2 2 3 4 2 1 1 1 1 2 2 2 1 1 1 2 3 3 3 1 2 4 4 3 2 1 1 2 2 3 3 4 4 4 4 3 3 2 2 3 3 4 4 4 6 7 9 9 10 11 12 12 12 11 10 10 10 11 12 13 13 13 14 16 17 17 16 17 17 17
Wind_Direction
346 347 345 346 350 349 348 351 351 348 353 359 346 328 317 356 26 1 352 348 323 291 86 93 71 74 87 102 77 52 24 16 14 14 359 348 318 291 279 328 319 311 320 303 286 286 287 273 271 275 261 280 22 26 359 328 317 310 284 280 356 306 255 251 253 255 268 274 272 267 273 281 265 247 232 223 222 223 230 243 255 239 224 216 224 237 232
348 348 346 350 352 348 347 350 350 348 354 356 343 331 347 359 0 21 10 5 347 306 65 74 91 83 96 106 87 75 50 24 9 20 13 4 328 291 305 341 330 340 329 299 289 296 292 263 262 273 259 127 54 1 333 325 321 338 351 348 350 306 248 244 253 245 236 245 246 234 232 250 247 233 227 228 231 234 242 256 266 253 237 230 226 221 224
348 347 348 352 350 347 348 349 349 348 351 355 351 337 314 302 291 68 29 26 34 52 38 40 86 89 90 82 65 69 77 40 8 7 18 14 339 299 303 303 301 310 298 281 281 286 278 270 270 270 266 225 79 3 343 301 297 0 5 332 312 284 265 257 253 242 223 212 225 229 226 236 236 228 226 230 234 235 237 237 234 234 240 244 239 228 217
345 345 350 352 346 347 350 347 348 349 351 355 355 337 321 319 7 17 30 46 54 60 44 38 67 78 76 77 50 26 52 65 25 352 1 20 350 330 347 313 296 317 310 292 284 278 268 276 287 286 283 275 286 350 329 281 287 338 331 300 284 274 267 261 255 254 259 279 300 309 316 293 247 226 225 226 227 233 236 234 231 231 237 237 236 248 250
346 348 350 349 346 348 350 346 346 351 355 354 342 323 337 359 23 16 6 28 40 48 49 43 52 52 28 37 46 22 15 45 42 8 11 20 349 342 43 2 323 342 333 311 295 293 288 283 286 292 295 292 292 288 268 259 262 281 279 268 264 267 259 254 254 257 267 280 288 292 297 290 274 260 251 235 219 224 229 230 230 230 239 233 223 236 256
348 350 350 349 349 350 350 347 346 352 360 354 336 333 17 26 57 43 342 348 33 37 35 38 52 59 55 52 33 27 25 22 27 32 3 349 325 286 158 92 347 329 325 306 292 299 296 279 279 297 302 302 300 287 270 256 229 229 250 248 248 263 264 261 261 261 265 273 279 281 278 273 271 271 269 258 240 228 227 232 231 224 231 238 229 235 261
350 352 351 351 351 350 350 349 347 354 3 355 344 15 43 44 73 66 7 36 57 51 42 43 56 55 52 61 41 28 32 28 14 339 308 296 314 304 275 263 317 295 283 281 280 292 296 287 295 307 304 301 301 296 281 256 214 228 251 239 227 253 262 264 266 268 268 270 272 271 267 266 264 261 259 259 255 244 234 235 234 230 237 247 251 273 274
352 354 353 353 351 349 352 352 350 357 6 12 23 43 42 43 63 51 66 88 71 61 56 50 69 65 43 45 43 17 12 22 5 325 303 290 250 257 273 292 300 285 263 257 263 277 288 284 287 294 296 293 291 292 287 266 238 248 259 243 226 240 258 271 279 279 271 270 271 266 259 258 260 258 254 253 252 245 238 234 231 231 235 238 244 257 262
353 356 354 352 349 350 353 353 352 358 12 25 39 45 38 37 38 7 1 91 57 46 66 53 66 69 39 26 32 12 12 14 342 314 312 302 280 255 279 299 303 286 264 256 268 281 283 278 280 283 284 282 281 278 273 273 270 258 253 251 234 233 259 275 279 277 272 270 268 261 256 256 256 253 248 245 244 241 235 228 225 230 228 220 226 237 243
355 357 351 347 349 350 350 350 350 358 18 30 25 39 39 32 32 5 330 96 55 34 73 62 42 55 36 19 15 358 3 9 338 329 93 279 273 267 287 300 302 289 279 280 292 299 292 285 286 283 277 274 272 268 261 260 263 258 253 255 244 238 254 265 266 269 275 277 269 259 253 252 250 245 239 236 236 238 236 225 218 230 231 220 222 231 246
356 356 349 347 349 350 350 351 350 354 17 32 21 30 34 17 26 359 315 75 75 48 62 52 38 49 36 357 345 339 342 350 335 314 278 277 280 273 279 287 287 290 308 313 309 303 294 287 282 276 270 266 262 261 258 253 250 248 248 249 242 239 243 249 259 265 270 281 284 271 248 239 239 244 239 231 226 228 233 227 200 195 229 245 257 284 328
0 356 351 350 349 351 355 359 0 358 6 20 16 24 19 3 5 342 324 22 62 52 59 55 34 24 10 346 333 330 328 322 311 293 283 287 290 282 278 278 276 294 328 321 310 305 296 289 282 273 265 262 259 257 255 250 244 238 237 237 235 234 236 239 249 256 264 276 279 264 244 234 237 265 249 238 231 222 215 190 152 182 239 291 285 289 317
360 353 352 353 352 354 359 3 5 4 2 1 3 36 25 357 356 30 357 0 49 50 44 57 46 13 2 351 334 327 320 309 300 285 275 277 284 288 284 274 276 298 319 315 308 306 301 295 290 283 271 262 260 258 253 249 244 236 228 225 226 226 226 233 240 246 255 257 246 246 248 241 241 248 235 240 230 201 167 121 117 193 300 302 277 282 308
355 353 354 356 356 354 355 0 3 3 4 6 345 33 89 38 6 43 1 312 6 42 30 52 52 17 357 347 335 326 318 312 307 288 274 284 290 291 290 286 290 300 307 305 301 302 304 303 300 294 282 264 259 263 260 255 249 239 227 217 217 219 220 226 233 234 240 245 240 247 261 260 244 216 207 289 244 170 156 144 144 135 354 305 285 290 301
354 353 354 355 353 349 349 354 0 2 7 22 2 221 154 161 176 156 259 304 328 19 51 19 11 0 346 344 345 333 322 329 323 296 271 274 281 289 294 293 296 299 296 298 302 302 304 305 306 311 311 304 301 297 294 295 270 240 225 213 207 210 214 217 226 230 232 242 246 246 254 254 223 128 44 359 353 354 308 241 157 140 49 334 320 318 326
355 352 353 351 346 346 347 350 356 2 7 21 98 192 155 157 163 166 179 316 318 350 41 19 347 333 333 337 338 328 325 341 331 302 254 202 277 300 306 298 297 298 294 291 294 295 299 301 306 313 310 304 306 302 301 310 297 226 209 205 201 204 210 215 228 235 229 234 240 238 241 236 112 51 17 357 345 335 298 225 190 164 40 19 5 354 354
355 353 355 353 348 347 345 345 351 358 4 31 72 97 115 147 165 169 167 198 281 318 18 7 319 312 335 329 318 322 327 338 327 310 313 328 314 314 308 292 291 291 288 293 293 297 309 307 308 307 292 259 276 292 296 303 287 204 188 196 198 200 205 212 223 230 232 235 237 240 244 243 34 8 346 342 334 309 240 218 196 84 36 20 21 18 8
351 353 355 351 349 347 339 339 350 359 4 57 89 111 119 149 173 171 173 231 272 301 25 349 307 309 338 330 322 333 328 323 316 304 304 304 312 325 322 311 313 295 279 307 324 328 315 306 298 297 289 217 172 289 304 289 263 213 179 183 194 197 200 208 217 222 232 235 235 251 255 281 5 349 342 347 319 243 206 213 204 46 30 29 32 25 11
345 345 347 343 340 342 336 335 349 16 25 80 100 102 106 141 173 176 187 238 278 313 351 312 280 288 313 298 281 266 280 292 291 294 300 306 330 326 311 289 313 308 294 324 333 323 302 299 292 278 284 283 179 273 278 263 261 222 183 181 190 195 196 205 216 221 230 233 236 254 252 348 5 340 336 2 307 232 182 275 288 347 16 26 29 22 11
341 337 345 343 333 335 336 334 345 13 36 98 94 87 91 122 181 192 215 273 291 293 316 28 256 274 283 276 280 281 268 263 261 279 295 316 338 325 307 242 350 317 322 346 339 321 290 307 315 288 286 304 304 295 304 303 345 13 173 181 185 197 198 202 212 220 231 232 231 242 241 12 3 338 327 21 352 272 24 299 260 357 10 0 10 21 9
339 340 352 353 340 334 335 335 339 344 172 145 130 127 127 112 168 202 223 268 280 280 39 58 297 283 281 276 283 287 281 273 274 283 292 306 322 324 326 346 342 327 336 345 331 321 305 310 317 304 290 298 299 319 325 328 61 34 7 199 173 238 220 216 220 218 224 224 219 238 286 340 354 342 339 24 31 41 358 327 319 16 2 343 348 4 359
336 342 352 0 5 2 354 357 15 179 181 158 143 140 142 144 174 215 219 237 252 267 298 312 292 275 268 267 268 269 272 274 271 269 275 291 304 306 312 328 337 345 352 342 319 310 310 309 313 309 305 310 309 318 329 347 66 26 359 355 43 335 321 274 250 250 263 258 262 327 331 325 333 333 325 1 11 346 336 332 328 327 336 342 336 335 342
337 346 359 14 25 33 37 42 63 138 174 166 153 154 226 193 200 234 241 246 260 270 274 276 270 255 246 253 262 260 262 266 262 254 245 251 282 298 299 321 341 342 334 331 319 311 312 310 308 306 311 324 322 316 335 17 35 2 350 348 279 300 319 301 268 293 305 285 271 296 311 316 319 306 256 227 247 284 321 323 317 315 319 325 323 321 326
334 346 12 36 45 55 64 65 67 85 156 175 168 176 235 217 216 248 250 251 277 286 252 235 245 298 309 295 295 280 261 256 256 248 229 222 247 290 335 6 335 315 311 327 321 300 298 299 292 298 310 320 329 331 343 24 21 342 335 343 289 289 303 293 280 305 312 290 263 302 309 314 310 280 218 215 259 307 326 316 307 305 307 310 315 315 314
320 337 47 64 65 68 74 79 80 86 128 165 154 148 226 227 231 265 276 276 303 329 312 185 125 37 349 310 304 315 310 286 262 243 219 211 226 260 301 320 311 302 305 316 314 292 297 300 284 295 309 317 349 348 344 3 359 339 358 10 334 303 309 302 285 288 289 286 318 323 312 304 287 238 198 243 301 320 322 311 303 301 301 303 307 309 311
275 221 182 114 87 76 74 82 95 114 147 153 148 164 232 237 216 229 285 301 280 278 313 23 82 62 358 351 355 347 340 333 298 235 218 214 223 246 272 287 295 294 288 289 300 310 303 297 289 303 321 348 355 331 327 338 324 324 6 4 331 310 324 327 309 296 287 290 328 333 321 301 251 278 318 312 313 316 312 307 305 301 298 299 302 305 310
255 220 202 185 152 99 58 67 116 156 180 192 199 210 228 234 216 203 247 296 295 258 291 3 42 50 23 21 21 12 9 20 36 89 168 200 219 237 258 274 292 304 298 285 2 324 283 317 354 332 318 333 324 298 283 310 309 352 11 358 340 334 351 346 330 317 326 343 343 335 325 303 293 313 316 312 312 311 305 303 303 299 299 300 300 302 306
258 230 219 212 206 202 226 278 268 230 223 229 242 254 253 245 238 225 222 261 301 318 324 328 329 312 329 27 29 28 37 51 61 81 102 117 156 197 238 269 296 1 33 54 62 23 12 21 16 358 338 327 320 318 332 17 63 34 6 352 347 352 0 358 349 333 333 342 340 329 313 298 299 308 312 312 311 307 300 300 299 295 298 299 297 300 306
273 245 229 222 219 218 220 231 248 258 268 277 273 267 256 235 226 233 224 224 272 300 301 285 281 281 301 34 41 43 50 61 74 88 98 104 117 129 131 92 50 45 43 49 51 43 42 38 24 20 14 342 322 344 10 18 34 26 358 344 341 350 360 5 358 341 332 338 337 325 310 306 311 315 313 311 311 305 298 295 294 292 297 298 292 291 298
294 259 238 231 228 225 223 225 230 249 274 288 279 264 248 203 192 216 219 209 244 289 296 284 287 44 92 20 55 73 76 75 81 90 98 105 111 113 110 83 45 18 1 21 27 27 37 37 30 39 36 6 347 18 24 17 28 20 354 342 340 347 356 3 357 344 337 337 333 321 312 321 330 324 316 322 331 322 306 296 292 291 295 297 290 285 289
312 285 256 238 231 228 227 227 228 237 256 266 271 280 298 83 135 203 211 198 218 269 283 280 282 279 179 193 186 131 112 108 112 111 106 114 125 127 178 257 5 351 316 342 15 24 24 18 20 37 38 20 9 37 34 23 22 6 350 348 348 347 349 353 353 348 343 339 335 329 327 345 350 339 331 335 336 327 316 309 304 299 295 291 285 281 285
317 306 281 250 235 230 227 227 230 236 242 253 266 281 301 328 293 221 206 184 208 264 286 287 280 276 216 172 188 204 211 210 211 210 197 196 218 238 241 254 299 333 274 296 330 15 14 4 9 31 33 16 355 33 37 27 13 353 346 349 352 349 348 351 355 353 350 350 351 349 348 352 353 348 335 328 327 329 329 323 318 315 301 285 278 277 284
321 316 298 268 240 227 223 226 231 235 245 258 266 271 270 268 260 219 187 194 242 274 294 300 295 298 322 137 182 194 205 219 234 233 215 196 224 264 251 251 281 258 222 261 331 358 356 338 344 26 40 32 12 32 32 18 1 350 349 352 354 352 351 352 354 356 356 357 0 358 347 342 343 341 334 329 333 340 340 333 327 319 289 279 279 282 292
322 319 307 280 244 226 221 221 225 238 258 266 272 281 266 251 233 191 181 212 265 272 247 275 300 313 294 235 178 168 192 230 250 244 226 181 189 268 275 252 251 241 200 226 316 320 347 332 332 3 35 36 24 23 19 7 357 352 353 356 355 354 355 355 357 1 0 357 359 356 344 338 342 346 348 351 352 350 347 345 341 330 297 281 288 288 290
323 324 315 289 240 214 209 210 219 241 261 264 269 290 257 217 188 178 188 215 264 282 255 257 294 309 302 295 22 131 195 253 258 255 272 236 182 255 283 269 246 241 127 169 279 322 10 345 327 350 11 21 22 18 3 356 352 351 354 358 356 356 358 358 355 356 358 358 358 355 351 356 3 2 359 0 358 353 349 348 345 344 347 335 316 302 288
327 329 323 292 177 174 191 210 219 234 254 272 281 248 210 159 144 171 210 232 257 281 301 280 275 293 309 320 359 93 209 251 236 205 280 291 216 221 254 262 262 266 100 215 253 327 9 331 329 5 15 17 16 8 356 353 353 353 355 357 357 359 3 2 355 351 354 359 2 2 2 7 10 7 2 1 0 356 353 353 351 349 351 347 337 328 301
325 335 16 107 140 174 210 211 211 226 239 239 109 156 157 136 136 181 214 231 236 240 258 273 275 288 306 310 339 97 179 244 213 182 214 241 246 208 223 253 277 53 163 232 256 44 10 323 353 21 27 26 14 1 358 0 360 356 353 354 357 1 4 6 360 353 353 359 4 7 8 9 10 8 3 1 1 358 357 357 353 344 341 340 336 330 310
321 340 95 156 198 237 247 185 191 206 197 147 127 145 153 158 193 203 195 210 216 208 223 255 265 274 287 290 299 105 116 271 245 218 207 215 230 205 201 233 294 299 255 275 54 75 274 314 29 32 29 28 16 2 359 2 2 358 353 353 356 0 5 11 9 1 359 3 7 8 9 8 8 7 3 359 359 358 357 357 354 345 340 338 334 328 318
318 313 210 219 238 320 27 136 158 154 143 145 186 212 183 186 218 212 176 189 207 198 209 237 257 276 289 292 268 159 218 277 273 248 197 192 229 220 202 211 261 269 274 297 86 158 264 314 40 23 19 21 10 360 359 1 360 357 356 356 358 1 5 13 15 11 10 12 11 10 11 9 6 5 2 360 358 357 360 3 0 353 350 347 342 340 339
253 241 244 249 317 42 81 139 149 144 152 199 228 233 207 204 219 220 183 214 226 204 195 231 269 279 280 293 302 244 211 261 296 319 320 233 195 262 280 272 158 258 288 308 111 198 285 325 344 347 8 13 1 356 359 3 1 358 358 1 1 2 5 12 18 18 19 19 17 16 17 15 12 7 5 4 3 360 1 4 3 360 358 356 351 349 353
225 239 279 331 27 82 135 158 170 192 226 230 224 231 234 219 201 204 242 262 274 206 175 238 286 291 238 268 292 277 203 235 300 324 299 254 164 238 272 299 105 269 294 334 79 208 276 312 332 350 11 9 358 359 2 4 4 2 2 5 6 5 6 12 19 21 21 20 18 17 16 17 18 16 11 8 8 5 4 5 6 6 5 2 360 0 5
238 241 277 338 87 163 177 189 205 221 232 239 241 242 238 230 223 235 240 262 317 354 176 232 296 327 341 283 287 304 233 236 285 282 265 252 142 255 273 279 179 263 296 4 70 252 287 316 327 351 18 4 357 3 6 3 3 4 4 7 9 9 9 12 19 26 27 23 19 18 16 16 19 19 16 13 12 10 9 9 10 10 9 7 9 13 15
241 232 253 259 220 202 208 218 215 212 225 234 235 253 267 267 266 267 248 214 226 258 229 230 282 305 314 211 244 303 74 116 258 263 269 290 84 255 262 256 242 262 312 33 249 271 304 321 322 346 15 352 351 4 7 2 1 5 7 7 8 10 12 12 15 23 29 27 23 20 19 19 20 21 20 18 16 13 13 14 14 13 11 11 15 20 22
179 194 232 245 221 207 223 232 205 212 245 239 230 283 309 319 323 310 308 328 311 276 279 293 296 295 294 147 183 222 145 156 239 249 244 229 221 238 253 269 284 273 273 268 280 305 320 314 312 335 341 333 350 2 2 358 357 2 11 14 13 13 15 15 14 18 23 24 23 23 23 23 24 24 23 23 21 18 17 16 16 16 15 15 18 22 24
205 218 225 248 237 203 212 228 203 221 252 262 263 297 312 320 322 323 332 348 335 307 307 314 304 297 298 132 166 249 236 179 219 232 231 247 254 250 265 312 330 275 269 283 299 311 312 311 320 335 326 340 359 1 360 358 355 354 8 21 20 16 16 17 17 17 17 16 18 22 25 25 24 25 26 26 25 24 23 21 19 19 20 22 24 24 24
257 261 251 273 275 236 227 250 242 243 276 301 306 308 316 325 333 345 354 345 317 308 317 325 315 301 294 215 186 229 201 204 237 248 249 266 275 280 319 317 293 278 292 307 303 301 315 339 15 28 357 4 4 358 359 1 356 349 1 18 22 19 17 16 16 16 15 12 13 19 25 27 26 26 27 28 28 27 26 25 24 23 24 27 30 29 27
255 247 258 276 272 233 228 245 265 291 303 306 311 331 356 4 2 359 351 326 304 300 312 318 306 294 296 307 276 231 200 219 258 281 288 287 294 308 317 281 278 284 296 291 287 299 331 0 45 102 113 69 11 359 5 10 9 3 1 6 15 21 20 15 11 10 11 12 12 15 21 25 27 27 28 30 31 30 29 28 28 27 26 28 31 31 31
261 228 244 261 258 249 258 284 307 303 302 314 346 41 57 41 359 329 324 312 297 293 303 309 289 272 262 243 249 253 244 241 262 295 347 314 296 293 279 277 285 297 286 269 284 329 4 47 112 124 129 118 48 13 11 16 20 18 12 10 17 23 21 15 11 8 7 9 12 14 16 20 25 29 31 32 34 34 34 33 32 32 31 31 31 32 33
276 259 248 259 266 269 278 298 302 299 314 358 25 49 72 62 310 297 311 311 299 295 310 333 283 284 281 245 261 273 281 282 289 314 329 278 268 276 294 294 292 295 290 278 309 357 35 106 123 126 131 122 85 39 24 25 24 18 15 20 25 26 22 18 16 13 10 8 8 9 13 17 23 28 32 35 36 37 38 37 37 37 36 36 36 36 36
246 248 243 252 272 285 292 298 298 305 332 5 14 29 80 34 298 290 320 327 304 293 155 126 272 295 293 275 277 287 328 352 340 325 280 265 270 284 294 289 288 299 322 335 345 29 105 134 141 141 134 121 95 50 35 35 28 14 16 23 26 24 21 20 17 14 14 12 5 2 7 15 20 24 31 37 40 40 40 41 42 42 41 40 40 40 40
221 239 245 252 273 293 307 318 319 322 332 340 339 345 137 202 254 263 308 312 284 264 184 106 345 300 282 279 286 305 354 353 318 269 257 265 277 292 292 293 301 322 343 15 139 140 142 148 153 151 141 128 107 74 54 45 35 28 28 31 30 23 20 20 17 12 12 12 6 0 1 7 13 21 30 37 40 41 41 42 44 45 47 47 46 44 43
221 257 274 271 270 281 297 312 323 324 324 329 339 30 170 225 233 223 241 269 268 250 145 134 193 249 278 294 305 319 301 271 245 247 259 265 264 286 304 316 328 330 314 190 161 162 162 158 154 149 146 143 134 116 91 63 54 53 51 46 39 28 20 20 20 15 11 9 7 5 2 359 2 14 27 35 38 41 43 43 43 45 48 50 52 51 48